Theta_e
354 354 354 354 355 353 354 354 350 350 350 353 354 353 353 353 354 355 356 355 354 354 355 355 357 357 353 351 350 349 347 346 345 343 345 347 345 341 341 341 343 344 347 350 351 351 353 355 356 357 358 356 358 359 356 358 357 355 357 355 355 357 355
354 354 354 354 355 354 354 353 352 351 351 353 355 354 354 353 355 356 357 357 355 355 355 355 357 357 355 352 350 350 348 346 346 344 343 345 346 344 341 340 341 343 345 346 348 351 352 354 355 356 358 355 355 358 358 358 357 357 357 355 355 357 356
353 354 354 354 356 356 354 353 352 351 351 353 355 356 355 354 355 356 357 358 357 356 356 355 357 357 356 353 352 350 350 347 346 346 344 344 344 345 343 340 340 341 343 344 345 348 351 354 355 355 356 355 354 356 358 359 358 357 358 357 355 356 356
353 353 353 354 357 356 356 355 353 352 352 354 356 356 356 355 355 356 357 359 358 358 357 356 356 357 356 354 353 351 351 349 348 346 344 343 342 344 345 344 341 340 343 345 344 344 348 353 355 354 356 355 354 354 356 359 359 358 358 358 357 355 355
353 352 353 356 357 357 358 357 355 354 353 355 356 356 356 355 355 355 357 358 359 358 358 357 356 356 356 355 353 352 351 350 348 346 344 343 342 343 345 347 346 344 343 345 347 345 346 350 353 354 355 356 355 354 356 359 359 358 358 359 358 355 355
352 353 354 355 357 357 358 357 357 356 354 355 357 357 356 356 355 356 356 359 359 359 359 358 357 357 357 355 353 352 352 351 349 347 346 345 343 342 345 347 348 347 346 346 349 349 349 348 350 354 354 355 355 355 356 359 360 359 358 358 359 356 355
352 354 356 356 357 357 358 357 357 356 356 355 357 358 357 356 356 356 357 359 360 360 360 358 358 357 357 356 354 353 352 351 350 348 347 345 344 343 343 345 348 349 349 349 350 351 352 351 350 351 354 355 355 355 355 358 360 359 358 358 359 357 357
353 354 356 357 356 356 357 357 357 356 356 357 357 358 358 357 356 356 357 359 361 361 361 360 359 358 357 357 356 354 353 352 351 350 349 346 345 345 343 343 346 349 352 352 352 351 352 353 352 351 352 354 355 355 356 358 359 360 359 359 359 358 357
353 355 355 356 355 355 356 356 356 356 356 357 359 358 358 357 357 357 358 359 361 362 361 361 360 359 358 359 357 356 354 353 352 351 351 348 348 347 345 344 345 348 352 353 354 352 352 353 353 353 353 354 354 355 357 359 359 359 360 359 358 357 357
353 354 354 355 353 353 355 356 357 357 358 358 359 359 359 358 357 358 358 360 361 363 363 362 361 360 360 359 359 358 355 354 353 352 352 351 349 349 349 347 347 349 351 352 354 354 352 352 354 354 354 354 354 355 356 358 359 358 359 359 358 356 355
353 353 354 353 352 355 357 357 359 359 358 358 358 358 358 358 358 357 358 359 360 363 364 364 363 362 362 361 360 360 358 356 355 354 354 353 352 351 351 351 350 350 351 353 354 355 354 352 353 355 355 355 355 355 356 358 358 357 358 358 357 356 355
354 355 355 353 353 356 357 357 360 360 359 357 357 358 358 358 358 357 356 357 358 361 363 364 364 365 364 363 361 361 359 358 357 355 355 355 354 353 353 354 353 352 353 354 354 355 355 353 353 355 355 356 356 356 356 358 358 357 356 356 357 357 357
354 354 354 356 356 356 357 358 358 359 359 358 357 358 359 358 358 357 358 357 357 358 361 362 364 365 365 364 363 361 360 359 358 357 356 355 354 354 354 355 355 354 354 355 355 356 356 355 353 354 355 356 356 357 357 357 358 357 356 356 357 357 358
352 350 352 354 357 359 360 359 361 361 358 356 358 359 358 358 358 358 358 357 357 358 359 362 364 365 365 365 364 363 361 360 360 358 357 356 355 353 354 354 355 355 355 356 356 356 357 356 355 354 355 356 356 357 357 357 357 357 357 356 356 357 359
347 347 348 351 354 358 359 357 360 368 366 358 356 358 358 359 359 358 358 358 357 358 359 360 363 365 366 366 365 364 362 361 361 360 358 356 355 355 354 354 355 356 356 356 356 356 356 356 356 355 355 356 357 357 358 358 357 357 357 356 355 356 358
344 345 346 348 351 355 356 354 354 361 364 359 357 357 357 358 358 358 358 358 357 358 359 360 361 364 365 366 365 365 363 362 361 360 359 358 356 355 355 355 356 357 357 357 357 356 357 357 356 355 356 356 357 357 358 358 358 357 356 356 356 356 356
341 342 342 344 347 348 350 352 353 355 357 356 355 356 355 356 357 357 357 357 357 358 358 359 361 363 365 365 366 365 364 363 361 361 360 359 357 355 355 355 355 357 358 358 357 357 356 356 357 357 356 357 357 358 358 359 358 357 356 355 355 355 356
338 338 339 340 342 344 344 346 349 352 352 352 353 353 354 355 356 355 356 356 356 356 355 356 358 361 364 366 366 366 365 363 363 361 360 359 358 356 355 356 356 357 359 359 359 358 357 356 356 356 357 357 358 359 359 359 359 358 356 355 355 355 355
335 335 335 336 337 340 342 343 345 347 349 351 352 352 354 355 353 354 356 356 356 356 356 355 355 356 360 363 366 367 366 364 362 361 360 359 359 358 356 356 357 358 359 359 359 359 357 356 356 357 358 358 358 359 359 358 359 359 357 356 355 355 355
333 332 332 333 333 335 338 340 341 343 345 349 351 350 353 355 354 354 353 355 357 357 356 357 357 356 355 357 362 366 366 364 362 362 361 360 359 358 357 358 358 358 358 359 359 359 358 357 357 357 358 358 358 360 359 359 359 358 358 358 357 356 356
331 330 330 331 331 332 335 336 338 340 341 344 347 348 350 354 357 356 353 353 356 357 357 357 356 356 357 357 360 365 366 364 363 363 362 361 360 360 358 358 359 359 358 358 359 359 359 358 357 357 358 358 359 359 360 361 360 359 359 359 358 358 357
328 328 329 329 329 330 333 334 335 337 338 341 343 346 348 352 355 357 355 355 356 356 357 356 356 357 357 358 360 364 366 364 364 363 362 361 361 361 359 359 358 359 359 358 359 359 359 358 358 357 357 359 359 359 360 361 361 361 361 361 360 360 359
326 326 327 327 328 329 330 332 333 334 336 338 341 344 347 351 355 357 358 357 356 356 356 355 356 357 356 357 360 364 367 365 364 364 363 363 362 362 361 360 359 359 359 359 359 359 360 359 358 358 357 358 360 360 360 361 362 363 362 362 362 362 362
324 325 326 325 327 327 328 329 330 332 335 337 339 342 346 350 353 356 359 359 358 356 356 356 356 357 356 358 361 365 367 365 364 365 363 363 363 362 362 361 360 360 360 359 359 359 359 359 359 358 357 357 358 360 361 362 361 362 363 363 363 363 363
323 323 324 324 325 326 326 328 329 331 333 335 337 340 343 347 351 354 357 360 360 357 356 355 357 357 358 359 362 365 367 365 365 365 363 364 363 363 363 362 360 360 360 359 359 358 358 360 359 359 358 357 357 358 359 362 362 362 363 363 362 362 362
322 322 323 323 324 324 325 326 328 330 331 333 335 337 340 344 350 354 357 360 360 359 357 355 355 356 357 359 363 366 367 366 366 365 364 364 364 363 363 363 361 361 359 360 360 357 358 359 359 359 358 358 358 357 357 359 360 361 361 361 361 362 362
322 321 322 322 322 324 325 325 327 328 329 331 333 334 337 341 347 353 358 360 361 361 359 356 354 353 354 357 362 366 367 367 367 365 365 365 364 364 364 364 362 361 360 360 360 358 358 359 359 359 359 359 359 358 357 357 358 359 360 359 359 360 360
321 321 322 321 321 323 324 325 326 326 327 328 330 332 335 339 344 351 356 360 362 362 362 361 358 354 352 355 362 366 368 368 367 367 366 365 365 365 364 364 363 363 361 361 360 358 357 358 360 361 360 360 360 359 360 359 358 358 359 359 358 359 359
321 322 322 321 321 322 323 324 324 325 326 327 329 331 334 337 342 349 355 360 361 362 362 363 361 356 354 356 364 367 367 368 368 367 367 367 366 365 365 365 364 363 362 362 360 359 359 359 360 362 362 362 362 361 361 360 359 359 358 358 359 358 359
321 322 322 322 321 322 323 323 324 324 325 326 328 330 333 336 340 346 353 360 363 364 364 364 362 359 356 356 362 367 368 369 369 369 367 367 367 367 366 366 365 364 363 363 361 361 360 359 361 363 363 363 363 363 362 361 361 360 359 358 358 358 359
321 321 322 322 322 322 322 323 323 323 324 326 327 330 332 335 339 344 352 361 368 370 369 367 364 360 357 357 361 365 368 369 369 369 369 369 369 368 367 367 367 366 365 364 363 361 360 360 361 362 364 363 363 363 362 362 362 362 361 360 359 358 358
320 321 322 322 322 322 323 322 322 322 324 326 327 330 331 334 337 342 351 361 369 371 372 370 366 360 358 359 361 363 367 369 370 371 370 370 370 369 369 368 369 368 366 365 364 363 361 361 360 360 362 362 362 363 362 362 363 363 363 362 361 360 358
320 321 321 321 322 323 322 322 322 323 325 327 329 330 332 334 337 342 350 360 367 370 371 371 367 362 361 362 363 364 367 369 370 371 371 372 371 371 370 370 370 369 368 367 366 365 363 362 361 360 359 361 361 362 362 362 363 363 364 363 362 362 361
320 320 320 321 322 322 322 322 322 324 326 328 330 331 333 336 340 345 353 362 367 368 370 372 369 363 362 364 365 366 367 369 370 371 370 371 371 371 372 371 370 370 369 369 368 367 365 364 363 360 359 359 359 361 361 361 362 363 363 363 363 362 362
320 320 321 322 322 322 321 322 323 325 327 329 330 333 337 340 344 350 357 362 366 367 369 372 369 366 365 365 367 368 368 369 370 371 371 371 372 372 371 371 372 371 370 370 369 368 367 365 364 362 360 359 357 358 360 360 361 362 362 360 360 361 362
320 320 321 321 321 321 321 321 323 325 328 331 333 336 340 342 346 353 359 361 363 365 367 370 371 368 366 367 368 367 369 369 370 370 370 370 370 371 372 371 371 371 371 370 370 370 368 367 365 363 362 360 358 357 358 359 359 360 360 360 359 359 360
320 321 321 321 320 320 320 321 323 326 329 331 334 337 340 340 345 352 356 358 360 362 364 367 370 369 367 368 369 368 369 370 370 371 371 372 372 371 370 367 366 368 370 370 370 370 370 368 366 364 362 361 360 358 357 357 357 359 359 360 360 359 359
321 321 320 319 319 320 320 321 324 327 329 330 332 335 336 338 342 346 349 353 358 360 359 362 367 370 369 367 367 366 366 366 365 365 365 367 368 368 366 363 361 362 364 366 369 370 370 369 367 365 364 362 361 360 359 358 358 358 359 360 360 361 360
Wind_Speed
19 19 17 14 15 15 15 16 19 24 28 29 32 33 34 36 38 37 38 41 42 41 41 40 39 41 42 41 41 40 40 39 37 36 34 33 33 33 30 29 28 28 27 27 25 23 23 23 22 22 21 20 20 18 16 15 15 15 14 12 14 14 11
18 18 17 15 15 16 17 19 21 24 27 29 33 35 34 36 38 38 39 41 43 43 42 42 40 41 43 42 41 40 41 40 39 38 37 35 33 33 33 32 31 30 29 28 27 24 23 23 23 23 22 21 21 21 19 18 17 17 16 15 15 14 12
18 18 19 18 17 17 17 19 22 25 27 27 31 35 35 36 38 39 40 41 43 43 43 42 41 41 42 42 42 41 41 41 40 39 38 37 35 33 34 34 33 33 31 30 29 26 25 24 24 24 24 23 22 22 21 20 20 19 18 18 18 17 15
21 20 20 19 19 18 17 18 21 27 29 29 32 36 38 38 38 39 39 41 43 42 42 43 42 41 41 41 41 41 42 41 41 41 40 39 37 35 33 34 34 34 33 31 30 29 27 26 26 26 26 24 23 23 23 22 21 22 20 18 18 19 18
20 19 18 17 17 16 16 16 21 27 30 31 33 36 38 38 37 37 37 40 43 43 44 44 42 40 39 40 41 41 42 43 42 42 41 40 39 36 34 34 35 34 34 32 31 30 29 28 28 28 28 27 25 23 24 24 23 22 22 20 18 19 18
17 16 15 15 15 16 16 17 22 29 32 32 33 35 37 38 37 36 36 39 42 43 42 42 41 40 40 40 40 40 41 42 42 42 41 40 39 38 37 36 36 35 34 34 32 31 30 31 31 30 30 29 28 25 25 26 25 23 23 23 21 19 18
17 16 16 16 16 16 16 17 22 29 33 33 33 34 35 37 37 36 36 38 41 42 42 42 42 42 41 41 40 40 40 41 42 42 41 40 40 40 40 38 37 36 35 35 34 32 31 31 32 32 32 31 29 28 26 27 27 25 24 25 23 21 20
20 18 17 16 16 16 16 16 20 26 30 31 31 32 34 36 37 36 35 36 39 40 42 43 43 43 42 41 40 40 41 42 42 41 41 40 40 40 41 40 39 38 36 35 35 35 33 33 34 34 33 33 31 29 29 29 29 27 26 26 26 24 22
22 20 19 18 17 17 16 16 21 26 27 28 29 31 34 35 36 36 34 35 38 40 41 42 42 43 43 42 42 42 41 41 42 42 41 40 40 41 41 41 40 39 37 36 36 36 36 34 35 36 35 35 33 31 30 30 30 29 28 28 27 27 26
20 20 20 19 18 17 15 15 18 20 22 25 27 29 33 35 35 36 34 33 36 39 42 42 42 41 41 41 42 42 41 40 41 42 42 42 41 41 41 41 40 39 38 37 36 36 37 36 35 37 37 36 35 34 32 32 31 31 30 30 29 29 28
16 21 20 20 18 15 15 15 15 15 18 23 26 28 32 34 34 36 36 35 35 37 40 41 39 39 40 41 41 40 40 41 41 42 43 43 42 41 41 40 39 39 38 38 36 36 38 37 36 37 38 38 37 36 34 34 33 33 33 31 30 30 30
6 11 12 19 21 18 17 16 15 15 18 23 26 28 31 33 34 36 36 37 36 35 37 39 39 38 37 38 39 40 41 41 41 42 44 44 43 42 41 40 39 39 38 39 37 36 37 39 37 37 39 39 38 37 36 35 35 35 34 33 32 31 31
14 12 9 3 9 12 14 15 17 18 19 23 26 28 30 32 34 35 35 37 38 36 35 37 38 37 36 37 38 39 41 42 43 43 44 45 44 42 41 40 39 39 39 39 39 37 37 39 39 38 39 40 39 38 38 37 37 37 36 35 33 32 31
19 20 19 16 14 11 6 1 7 12 16 22 27 29 30 31 32 33 34 35 36 35 35 36 37 37 36 36 37 39 41 42 43 43 43 43 43 42 41 41 40 40 40 40 40 39 38 39 40 39 39 40 40 39 38 38 38 38 37 36 34 33 32
19 19 20 19 18 16 15 14 10 5 2 9 15 21 25 27 30 31 32 34 34 34 34 34 35 36 36 35 37 40 41 42 41 41 41 41 42 42 42 42 41 40 40 40 41 40 38 38 40 40 39 39 40 39 38 38 38 38 38 38 36 34 33
17 18 19 18 15 14 14 15 15 13 8 7 7 6 7 10 14 17 19 22 26 29 33 35 35 35 35 37 39 39 39 39 40 40 40 41 42 43 42 42 41 40 40 41 41 40 39 38 39 40 39 39 39 38 38 38 38 39 39 38 38 36 33
17 17 17 16 14 14 14 13 13 14 11 8 10 11 10 8 9 13 12 10 12 15 18 25 33 36 35 35 36 37 37 37 39 40 40 42 43 44 43 42 42 41 40 41 41 41 39 38 38 40 40 39 39 38 38 38 38 39 39 39 39 37 35
17 16 16 16 14 13 13 12 11 11 13 13 10 9 8 7 5 12 17 19 18 15 13 18 21 27 34 35 33 34 36 38 38 39 40 41 42 44 44 42 42 41 40 40 41 41 39 38 38 40 40 39 39 39 38 38 37 39 40 40 40 39 37
16 15 15 15 15 15 13 11 10 9 12 15 14 11 7 4 1 6 11 16 21 25 21 18 22 21 22 27 32 36 36 37 38 38 39 40 42 42 42 41 41 41 41 41 41 41 40 38 37 39 39 39 39 39 39 39 38 38 39 41 41 41 39
14 15 15 14 14 15 12 12 14 16 15 16 18 21 20 11 7 8 11 13 17 24 28 26 23 20 21 23 28 35 38 37 38 38 38 39 40 40 40 40 41 41 41 40 40 41 41 40 37 37 39 40 39 38 38 39 39 39 39 40 41 41 41
13 14 14 14 14 13 12 15 19 22 23 23 22 24 24 18 11 11 15 18 21 25 26 26 28 29 28 28 31 35 39 39 39 39 38 38 39 39 40 40 40 40 40 38 39 41 42 42 39 37 38 39 39 38 37 38 39 40 40 40 40 41 41
13 14 14 14 14 14 15 18 20 22 24 24 23 21 23 21 15 10 13 18 22 27 29 28 30 33 36 37 36 37 41 42 40 40 39 38 38 38 39 40 39 39 39 37 37 39 40 41 40 39 38 38 39 39 38 37 39 40 40 40 40 40 41
13 13 14 17 18 19 21 22 23 24 24 24 24 23 23 23 21 17 11 13 23 29 30 30 33 35 36 36 35 38 42 43 42 41 39 38 39 38 39 40 40 39 38 36 35 36 38 39 39 40 39 38 38 39 39 38 38 39 40 40 39 40 41
15 15 17 20 23 23 25 26 26 26 26 26 26 25 25 24 23 23 19 14 19 27 29 30 32 35 36 35 35 37 42 43 42 42 40 40 40 39 39 40 40 39 38 37 35 35 37 38 38 38 40 39 38 38 39 38 39 39 40 40 40 40 41
15 18 19 21 22 23 26 28 28 28 27 26 26 28 29 29 26 24 23 21 17 21 26 31 34 36 36 35 35 37 41 42 42 42 42 41 41 40 40 39 39 39 38 37 36 34 34 36 36 36 38 39 39 38 37 36 38 40 40 39 40 40 42
13 18 20 21 22 23 24 25 25 26 26 26 28 31 31 30 28 25 25 25 22 19 22 28 34 37 37 34 33 35 39 41 42 43 43 42 41 40 40 39 38 38 38 37 36 34 33 34 35 35 36 37 38 39 38 36 35 38 40 40 40 41 42
15 18 20 22 25 26 24 22 22 22 24 26 29 32 31 29 27 27 26 25 23 22 23 26 31 35 35 33 31 35 39 40 42 43 42 42 41 39 38 38 37 38 38 37 36 35 33 33 35 35 34 35 36 37 39 39 37 36 37 39 39 41 43
15 17 20 22 24 25 24 23 22 22 23 27 29 30 30 29 28 29 28 25 24 27 28 27 28 33 34 33 31 35 38 39 40 41 40 39 39 38 37 37 37 37 38 37 36 35 34 33 33 34 34 34 35 36 37 39 39 38 37 37 38 40 42
14 15 19 22 23 25 24 23 23 24 24 25 27 28 28 28 29 30 29 28 31 33 32 29 28 31 34 34 33 35 38 39 39 39 38 38 39 39 37 36 36 36 37 37 36 35 35 34 33 33 32 32 34 35 36 37 39 41 40 39 38 39 41
15 17 18 20 23 25 24 23 24 26 27 27 28 29 29 27 27 30 31 33 36 35 31 30 30 31 34 36 36 36 37 38 38 38 38 37 38 38 37 36 36 36 36 37 36 34 33 33 32 31 31 31 31 33 35 36 37 40 43 43 41 40 40
15 18 20 21 24 25 24 23 25 27 27 28 29 31 31 28 26 29 32 34 34 32 30 30 31 32 34 36 37 37 37 37 38 38 38 38 38 38 37 36 35 34 34 35 35 34 33 32 32 31 30 30 30 32 34 36 36 38 41 43 43 42 41
13 17 19 22 24 26 26 25 24 25 27 29 31 33 35 34 30 29 33 35 34 32 33 33 32 33 34 35 37 38 37 36 36 37 37 37 37 37 37 36 35 34 33 33 33 33 33 32 32 31 29 29 30 31 33 34 36 38 41 42 43 43 43
11 15 18 21 23 25 26 24 23 24 26 29 32 35 37 38 36 33 33 34 34 34 35 34 33 33 34 35 36 37 38 37 36 37 37 37 37 36 35 36 35 33 33 33 33 34 33 32 31 31 29 28 29 30 32 33 34 36 39 42 44 44 44
11 14 18 23 25 25 24 23 24 25 26 27 32 35 35 36 37 35 33 32 33 33 35 33 33 33 32 34 36 35 37 37 36 36 35 34 34 34 33 34 35 34 35 37 36 35 33 32 32 32 32 31 29 28 29 30 32 35 39 43 44 45 46
12 13 15 21 25 25 24 25 25 25 25 28 34 36 33 33 35 33 31 30 30 31 33 30 32 34 31 33 35 34 35 37 36 36 35 34 34 34 33 34 35 34 34 36 37 37 35 34 34 35 36 35 33 31 28 28 33 39 42 43 44 44 46
13 14 14 18 23 25 25 27 27 25 25 30 34 32 30 32 33 31 29 29 28 27 31 27 27 32 29 29 31 32 33 33 32 32 32 31 31 31 31 32 34 34 32 32 34 37 38 35 34 35 36 36 37 38 36 35 37 40 41 42 42 42 44
13 14 15 18 21 23 25 28 29 26 26 30 32 29 29 31 32 28 27 27 25 23 27 27 19 23 26 27 29 31 32 31 31 32 33 32 32 31 29 27 28 30 32 31 31 34 37 36 35 36 36 36 37 38 40 40 37 35 35 37 39 40 42
12 14 16 19 20 21 23 27 27 25 27 31 31 29 30 30 30 29 28 27 25 22 23 25 18 11 13 14 15 19 20 18 15 15 16 20 22 22 24 27 26 24 26 28 29 32 36 38 37 36 36 37 37 36 38 39 37 33 33 34 34 35 37
Wind_Direction
183 187 190 190 188 188 187 186 185 185 185 184 183 184 182 182 183 183 185 187 189 191 191 192 191 192 193 194 195 196 195 195 194 194 193 193 195 195 196 197 195 195 195 195 197 198 198 201 203 205 207 200 194 199 199 197 200 196 194 195 188 187 191
185 189 190 189 189 190 189 187 186 183 183 184 184 185 185 184 184 184 185 187 190 191 192 193 193 193 194 194 195 196 196 196 196 195 195 196 198 199 200 201 200 200 200 201 202 202 201 203 205 206 209 207 199 197 200 199 198 199 200 198 189 184 188
187 190 189 188 187 188 186 185 187 186 184 184 184 186 187 186 186 186 186 187 189 191 192 194 195 195 195 195 195 197 198 198 198 197 198 198 198 201 202 203 205 205 205 207 207 206 205 206 207 208 209 210 207 201 201 202 201 200 202 203 200 193 191
189 190 189 188 184 184 184 182 184 186 188 189 187 188 188 188 188 187 187 188 188 189 192 194 196 196 196 196 196 197 198 199 200 200 201 201 200 201 202 203 206 207 207 209 210 210 208 207 208 210 210 211 211 206 203 204 205 204 203 205 206 203 201
191 189 184 185 183 182 183 182 184 185 188 189 189 189 189 189 189 189 189 189 188 190 193 194 195 197 198 199 199 199 199 200 201 202 202 202 202 201 201 203 205 206 208 208 210 211 210 208 209 210 211 211 212 209 206 207 209 208 203 204 207 207 207
189 186 183 185 184 183 184 183 185 187 188 188 187 188 189 189 190 191 191 189 189 191 192 193 195 196 198 200 201 201 201 201 202 202 203 203 202 202 202 204 205 206 208 207 208 210 210 209 209 210 211 210 210 209 208 208 210 211 205 202 208 209 207
186 184 185 186 184 183 183 183 186 187 189 190 188 187 188 190 192 193 192 190 189 190 190 192 194 196 198 201 202 203 202 202 202 203 203 202 203 203 203 205 206 207 208 207 207 207 208 208 208 209 209 208 208 209 210 209 210 211 208 204 207 210 208
185 183 183 184 184 184 182 182 185 187 188 189 188 187 188 190 192 194 193 191 189 189 190 193 194 195 197 199 202 205 204 203 202 202 202 202 203 204 205 205 206 207 207 206 206 206 207 207 207 208 208 207 207 209 210 211 211 210 210 208 208 209 208
181 179 182 182 183 185 186 184 183 185 186 186 186 186 187 189 192 193 192 190 189 189 191 193 195 196 197 198 201 205 206 204 203 201 201 202 203 204 205 206 207 207 207 206 207 206 206 208 207 206 206 206 207 209 210 212 212 211 211 211 211 211 210
183 177 180 182 184 187 187 184 180 180 184 185 185 186 187 189 191 192 191 189 188 190 192 193 195 197 197 198 200 203 205 205 204 202 201 201 203 204 206 207 207 207 207 206 207 207 206 208 208 206 204 205 206 207 209 212 213 212 213 215 214 214 213
182 181 179 179 181 182 182 182 181 179 181 184 185 186 189 191 192 193 194 193 191 190 192 193 194 197 198 199 200 201 204 205 204 203 202 202 203 204 205 206 206 206 207 206 206 206 206 207 207 206 204 204 205 206 208 211 214 213 213 216 217 217 216
136 176 178 179 178 176 178 179 180 181 181 184 185 186 189 191 193 194 196 198 197 194 193 193 194 196 199 199 199 200 203 205 205 204 203 202 202 203 204 204 205 205 206 206 205 206 206 206 206 205 205 204 205 206 207 210 213 214 214 215 217 218 218
51 50 46 124 168 170 177 179 180 181 180 182 185 188 190 191 193 195 197 198 200 199 196 195 196 199 200 198 199 200 202 204 205 205 204 203 202 202 203 203 204 204 205 206 205 205 205 205 205 205 205 205 206 206 208 209 212 213 214 215 216 217 218
45 48 45 38 37 41 39 126 190 187 184 185 187 188 189 191 193 195 197 199 200 201 200 198 198 200 201 199 199 200 203 204 206 206 205 204 203 202 202 203 203 204 205 205 205 205 205 205 205 205 205 206 206 207 208 209 210 213 214 214 216 217 218
37 44 46 42 39 36 28 17 4 347 194 183 187 188 189 193 195 197 199 200 200 201 201 201 201 202 202 201 200 201 203 204 205 206 205 204 203 202 202 202 203 203 204 205 205 206 206 206 205 204 205 206 207 208 208 208 210 212 213 214 214 216 218
30 37 42 42 40 34 30 21 6 355 7 50 71 105 146 169 184 191 198 203 205 206 204 201 203 206 206 205 203 202 202 203 204 204 205 204 203 202 202 202 202 203 203 204 205 205 205 206 205 204 204 205 207 207 208 209 210 211 214 215 215 216 218
23 27 33 35 36 35 30 20 3 349 350 28 64 71 74 96 140 164 174 192 219 232 227 214 209 208 210 210 206 201 200 202 203 203 204 204 203 202 202 202 201 202 203 203 204 205 205 204 203 203 204 205 206 207 207 208 210 211 214 216 217 216 216
19 19 23 22 23 27 25 16 8 351 341 350 18 51 67 77 130 173 178 185 200 222 260 274 253 226 216 213 207 202 201 202 202 204 204 204 204 203 202 202 201 201 202 202 202 203 203 204 203 202 203 204 206 207 208 209 211 212 213 216 218 218 217
15 11 16 18 15 12 8 2 356 342 336 340 343 343 352 11 305 218 205 203 203 201 212 253 278 276 256 231 211 202 202 203 202 204 205 205 204 203 202 201 201 201 201 201 201 201 202 203 203 201 202 204 206 208 209 210 211 212 213 216 218 219 218
13 6 8 13 11 5 356 344 337 335 342 347 339 332 326 306 258 244 242 234 220 205 203 214 230 254 276 263 228 207 201 203 204 204 205 205 204 204 203 202 202 202 202 201 200 200 201 202 203 202 201 203 205 207 210 211 212 213 214 216 219 220 219
10 3 2 3 2 357 349 342 338 338 344 344 337 331 323 303 263 232 225 221 215 210 211 216 215 216 226 234 230 214 202 201 204 204 205 205 204 204 204 204 205 204 202 201 200 200 201 202 203 203 202 203 205 206 209 212 213 214 215 218 220 221 221
5 0 358 356 353 347 343 342 338 335 333 328 322 317 314 306 294 264 228 218 218 215 213 216 218 216 212 212 218 215 204 200 202 202 203 204 203 204 204 205 206 205 203 202 201 201 202 202 203 204 203 203 204 206 208 211 213 214 216 218 220 221 221
359 358 353 348 345 341 338 337 333 327 322 318 316 314 312 310 311 309 286 232 221 221 217 212 214 218 214 211 215 214 204 199 200 200 201 202 202 203 204 205 206 206 204 203 202 202 203 203 203 205 204 204 204 205 208 210 212 214 216 218 220 220 220
356 357 353 346 343 340 337 335 331 327 325 322 321 321 319 317 315 311 301 267 225 218 217 213 214 218 217 215 217 214 205 200 199 198 199 200 201 203 204 205 205 205 205 204 203 203 203 203 204 205 206 207 206 206 208 209 211 214 215 217 218 218 218
350 352 351 346 341 338 334 331 329 328 328 327 325 324 323 321 317 310 301 287 256 223 213 212 214 217 219 220 220 213 205 201 199 198 198 200 201 203 204 204 205 205 205 206 205 205 204 204 204 205 207 209 210 209 209 210 212 213 214 216 216 217 217
349 348 347 344 339 335 332 331 330 329 327 325 323 322 321 318 313 306 299 291 275 246 224 220 219 218 218 222 220 212 205 202 200 199 199 200 200 202 203 204 204 205 206 206 206 206 205 204 205 206 207 209 211 213 213 213 213 213 214 216 217 217 216
349 344 344 341 336 333 331 330 329 326 320 319 320 319 319 318 311 302 297 293 282 266 251 240 231 225 221 220 218 211 206 203 202 201 200 200 200 201 203 204 204 204 205 206 206 206 206 205 204 206 209 209 211 214 216 217 217 216 215 216 218 218 216
349 343 342 339 333 332 331 328 325 323 319 319 319 317 316 316 310 302 298 293 285 278 271 258 242 232 226 220 214 209 205 203 202 201 200 200 199 199 202 203 204 204 204 205 206 206 206 205 204 205 207 210 211 214 216 218 219 219 218 218 218 219 217
344 338 335 334 331 330 329 326 324 323 320 318 317 316 315 314 308 302 297 291 286 283 279 270 253 236 226 219 212 206 204 203 201 200 199 199 198 198 201 202 203 204 204 204 205 206 206 206 204 203 205 207 210 213 216 218 219 220 221 221 220 220 219
338 333 329 326 325 326 326 325 324 322 319 320 321 317 314 310 306 300 294 290 288 285 280 275 261 239 224 218 212 206 203 201 200 199 198 198 198 198 199 201 202 203 204 204 205 205 206 206 204 202 203 205 208 211 214 216 217 219 221 222 223 223 223
330 324 321 317 318 323 325 323 321 318 315 318 323 322 315 309 303 296 291 291 291 290 288 281 263 239 224 218 212 206 202 199 197 197 197 197 196 197 198 199 200 202 203 204 205 206 206 207 206 204 202 203 206 208 211 213 214 216 219 222 223 224 225
319 315 314 312 314 321 325 323 319 317 315 316 322 324 318 312 306 294 289 293 295 296 295 286 262 237 223 217 212 206 200 196 195 195 196 197 197 198 199 198 199 201 203 203 205 207 208 207 207 206 205 204 205 206 208 209 211 212 216 219 221 223 225
310 311 312 310 311 317 322 322 319 318 318 318 321 323 318 313 308 297 290 293 295 297 297 285 256 231 220 214 208 202 197 194 193 193 194 195 197 199 200 200 201 202 203 204 206 207 209 208 207 207 207 206 205 205 206 207 207 209 212 215 219 221 223
304 308 310 310 312 317 322 322 318 316 315 315 319 321 317 312 307 299 292 293 295 298 301 283 248 225 216 209 203 197 194 193 192 191 192 194 196 198 200 201 202 205 206 207 207 207 207 207 207 208 208 207 205 205 204 205 206 207 210 213 216 219 221
301 305 311 313 313 316 323 325 319 312 313 317 320 320 317 312 307 298 293 296 298 305 308 285 242 221 214 207 199 195 194 193 193 192 191 193 196 198 201 202 204 209 212 213 212 211 211 209 208 208 209 208 207 204 201 203 207 210 213 216 218 220 221
299 305 313 314 312 316 323 326 321 316 320 325 324 321 319 317 312 303 297 301 303 310 315 294 242 215 209 204 197 195 194 193 193 193 192 193 195 197 200 202 204 208 213 216 216 215 215 214 213 212 210 210 211 210 207 208 211 213 215 218 221 223 225
296 306 314 314 313 316 322 327 327 326 328 331 330 326 324 323 320 315 311 311 310 313 318 309 267 219 208 204 200 197 195 194 194 193 193 193 195 196 196 196 201 208 211 213 215 215 215 216 217 217 216 214 214 214 214 215 217 217 218 219 221 224 225
294 306 312 312 312 316 321 327 329 331 333 333 331 329 327 325 325 325 324 322 320 317 318 317 305 258 221 210 199 192 191 190 190 194 200 202 199 198 196 192 193 202 210 213 213 211 212 215 217 218 218 218 217 217 216 217 218 220 222 223 223 224 224